Location: Mentone
(34.5413°N, 85.5351°W)
Time: 06:27:13
(UTC-06:00)

Vanguard 3 - All Passes

Search period start: 23 February 2018 00:00
Search period end: 05 March 2018 00:00
Orbit: 508 x 3264 km, 33.3° (Epoch: 22 February)

Date Brightness Start Highest point End Pass type
(mag) Time Alt. Az. Time Alt. Az. Time Alt. Az.
23 Feb - 10:27:32 10° S 10:31:13 12° SSE 10:34:21 10° SE daylight
23 Feb - 12:36:49 10° SW 12:44:16 32° SSE 12:49:00 10° E daylight
23 Feb - 14:50:20 10° WSW 14:56:05 66° S 14:59:59 10° E daylight
23 Feb - 17:03:24 10° W 17:07:21 66° S 17:11:02 10° ESE daylight
23 Feb - 19:15:28 10° WSW 19:18:27 22° SSW 19:22:03 10° SSE visible
24 Feb - 11:22:07 10° SSW 11:30:06 24° SSE 11:35:26 10° ESE daylight
24 Feb - 13:35:11 10° WSW 13:42:32 52° SSE 13:47:02 10° E daylight
24 Feb - 15:49:10 10° W 15:54:05 78° S 15:57:47 10° E daylight
24 Feb - 18:01:44 10° W 18:05:11 36° SSW 18:08:49 10° SE visible
25 Feb - 10:08:07 10° S 10:15:30 18° SSE 10:20:57 10° ESE daylight
25 Feb - 12:19:46 10° SW 12:28:41 41° SSE 12:34:01 10° E daylight
25 Feb - 14:34:13 10° WSW 14:40:40 73° S 14:44:47 10° E daylight
25 Feb - 16:47:47 10° W 16:52:00 59° SSW 16:55:36 10° ESE daylight
25 Feb - 19:00:37 10° WSW 19:02:59 16° SSW 19:05:36 10° SSE visible
26 Feb - 08:56:24 10° SSE 09:00:27 12° SSE 09:04:01 10° SE daylight
26 Feb - 11:04:24 10° SSW 11:14:24 31° SSE 11:20:38 10° E daylight
26 Feb - 13:18:37 10° WSW 13:27:00 62° SSE 13:31:54 10° E daylight
26 Feb - 15:33:16 10° W 15:38:42 77° S 15:42:31 10° E daylight
26 Feb - 17:46:23 10° W 17:49:45 29° SSW 17:53:02 10° SE daylight
27 Feb - 09:49:34 10° SSW 09:59:39 24° SSE 10:06:34 10° ESE daylight
27 Feb - 12:02:42 10° SW 12:13:02 50° SSE 12:18:55 10° E daylight
27 Feb - 14:17:58 10° W 14:25:12 78° S 14:29:37 10° E daylight
27 Feb - 16:32:05 10° W 16:36:36 52° SSW 16:40:11 10° ESE daylight
27 Feb - 18:46:13 10° SW 18:47:27 11° SSW 18:48:43 10° S visible
28 Feb - 08:36:03 10° S 08:44:30 17° SSE 08:51:05 10° ESE daylight
28 Feb - 10:46:47 10° SW 10:58:36 39° SSE 11:05:38 10° E daylight
28 Feb - 13:02:01 10° WSW 13:11:25 70° S 13:16:44 10° E daylight
28 Feb - 15:17:16 10° W 15:23:18 74° S 15:27:17 10° ESE daylight
28 Feb - 17:30:59 10° W 17:34:16 23° SSW 17:37:16 10° SSE daylight
01 Mar - 09:31:21 10° SSW 09:43:42 30° SSE 09:51:46 10° E daylight
01 Mar - 11:45:37 10° WSW 11:57:17 58° SSE 12:03:46 10° E daylight
01 Mar - 14:01:39 10° W 14:09:43 81° S 14:14:26 10° E daylight
01 Mar - 16:16:18 10° W 16:21:10 46° SSW 16:24:47 10° SE daylight
02 Mar - 08:16:58 10° S 08:28:23 22° SSE 08:36:49 10° ESE daylight
02 Mar - 10:29:14 10° SW 10:42:41 47° SSE 10:50:31 10° E daylight
02 Mar - 12:45:18 10° WSW 12:55:47 76° S 13:01:33 10° E daylight
02 Mar - 15:01:08 10° W 15:07:50 71° SSW 15:12:03 10° ESE daylight
02 Mar - 17:15:34 10° WSW 17:18:43 19° SSW 17:21:27 10° SSE daylight
03 Mar - 07:04:55 10° S 07:12:44 14° SE 07:19:25 10° ESE daylight
03 Mar - 09:13:19 10° SSW 09:27:36 37° SSE 09:36:43 10° E daylight
03 Mar - 11:28:31 10° WSW 11:41:28 66° SSE 11:48:33 10° E daylight
03 Mar - 13:45:12 10° W 13:54:10 82° S 13:59:15 10° E daylight
03 Mar - 16:00:23 10° W 16:05:39 40° SSW 16:09:23 10° SE daylight
04 Mar - 07:58:22 10° SSW 08:12:07 28° SSE 08:22:01 10° E daylight
04 Mar - 10:11:43 10° SW 10:26:40 55° SSE 10:35:16 10° E daylight
04 Mar - 12:28:31 10° W 12:40:05 81° S 12:46:20 10° E daylight
04 Mar - 14:44:53 10° W 14:52:20 66° SSW 14:56:49 10° ESE daylight
04 Mar - 17:00:09 10° WSW 17:03:05 16° SW 17:05:34 10° S daylight
